Weather History for KCDA - April, 2014

Change the Weather History Date:

Sunday, April 27, 2014

  Actual Average (K1V4) Record (K1V4)
Temperature  
Mean Temperature 42 °F 49 °F  
Max Temperature 48 °F 62 °F 88 °F (1990)
Min Temperature 37 °F 37 °F 18 °F (1972)
Degree Days  
Heating Degree Days 24 16  
Month to date heating degree days 574  
Since 1 July heating degree days 7374  
Cooling Degree Days 0 0  
Month to date cooling degree days 0  
Year to date cooling degree days 0  
Moisture  
Dew Point 35 °F    
Average Humidity 80    
Maximum Humidity 92    
Minimum Humidity 65    
Precipitation  
Precipitation 0.00 in 0.10 in 1.05 in (1996)
Month to date precipitation 2.55  
Year to date precipitation 9.74  
Sea Level Pressure  
Sea Level Pressure 29.96 in    
Wind  
Wind Speed 6 mph (NW)    
Max Wind Speed 16 mph    
Max Gust Speed 24 mph    
Visibility 8 miles    
Events Fog , Rain    
T = Trace of Precipitation, MM = Missing Value Source: NWS Daily Summary

Daily Weather History Graph

Daily Weather History Graph

Search for Another Location

Airport or City:

Trip Planner

Search our weather history database for the weather conditions in past years. The results will help you decide how hot, cold, wet, or windy it might be!

Date:

Astronomy

Apr. 27, 2014 Rise Set
Actual Time 5:44 AM EDT 7:47 PM EDT
Civil Twilight 5:12 AM EDT 8:19 PM EDT
Nautical Twilight 4:34 AM EDT 8:58 PM EDT
Astronomical Twilight 3:51 AM EDT 9:41 PM EDT
Moon 4:48 AM EDT (4/27) 6:14 PM EDT (4/27)
Length of Visible Light 15h 06m
Length of Day
14h 03m
Waning Crescent, 3% of the Moon is Illuminated
Apr 27
Waning Crescent
Apr 29
New
May 6
First Quarter
May 14
Full
May 21
Last Quarter

Hourly Weather History & Observations

Time (EDT) Temp. Windchill Dew Point Humidity Pressure Visibility Wind Dir Wind Speed Gust Speed Precip Events Conditions
12:15 AM 38.7 °F 34.3 °F 36.1 °F 91% 29.83 in 4.0 mi SSE 5.8 mph - N/A   Drizzle
12:35 AM 38.7 °F 35.2 °F 36.1 °F 91% 29.83 in 5.0 mi SSE 4.6 mph - N/A   Light Drizzle
12:55 AM 38.7 °F 34.3 °F 36.1 °F 91% 29.83 in 7.0 mi South 5.8 mph - N/A   Overcast
1:15 AM 38.7 °F 34.3 °F 36.1 °F 91% 29.83 in 7.0 mi SSE 5.8 mph - N/A   Overcast
1:35 AM 38.7 °F 34.3 °F 36.5 °F 92% 29.82 in 7.0 mi SSE 5.8 mph - N/A   Overcast
2:15 AM 38.7 °F - 36.5 °F 92% 29.83 in 1.8 mi Calm Calm - N/A   Overcast
2:35 AM 38.7 °F 36.3 °F 36.5 °F 92% 29.83 in 0.8 mi South 3.5 mph - N/A   Light Drizzle
2:55 AM 38.7 °F - 36.5 °F 92% 29.83 in 0.8 mi Calm Calm - N/A   Overcast
3:15 AM 38.7 °F - 36.5 °F 92% 29.83 in 0.5 mi Calm Calm - N/A Fog Fog
3:35 AM 38.5 °F - 36.3 °F 92% 29.83 in 0.8 mi Calm Calm - N/A   Overcast
3:55 AM 38.1 °F - 36.0 °F 92% 29.83 in 1.8 mi Calm Calm - N/A   Overcast
4:15 AM 37.8 °F - 35.6 °F 92% 29.83 in 10.0 mi Calm Calm - N/A   Light Drizzle
4:35 AM 37.8 °F - 35.6 °F 92% 29.84 in 10.0 mi Calm Calm - N/A   Overcast
4:55 AM 37.8 °F - 35.4 °F 91% 29.85 in 10.0 mi Calm Calm - N/A   Overcast
5:15 AM 37.4 °F 34.9 °F 34.7 °F 90% 29.85 in 10.0 mi West 3.5 mph - N/A   Light Drizzle
5:35 AM 37.0 °F - 34.3 °F 90% 29.85 in 10.0 mi Calm Calm - N/A   Overcast
5:55 AM 37.0 °F - 34.2 °F 89% 29.86 in 10.0 mi Calm Calm - N/A   Overcast
6:15 AM 37.0 °F - 34.2 °F 89% 29.87 in 10.0 mi Calm Calm - N/A   Overcast
6:35 AM 37.0 °F 33.3 °F 33.8 °F 88% 29.88 in 10.0 mi WNW 4.6 mph - N/A   Overcast
6:55 AM 37.0 °F 32.4 °F 33.3 °F 86% 29.89 in 10.0 mi WNW 5.8 mph - N/A   Overcast
7:15 AM 37.4 °F 32.8 °F 33.6 °F 86% 29.90 in 10.0 mi WNW 5.8 mph - N/A   Overcast
7:35 AM 37.6 °F 34.0 °F 33.8 °F 86% 29.91 in 10.0 mi WNW 4.6 mph - N/A   Overcast
7:55 AM 37.4 °F 33.8 °F 34.0 °F 87% 29.91 in 5.0 mi WNW 4.6 mph - N/A Rain Light Rain
8:15 AM 37.8 °F 34.2 °F 34.7 °F 89% 29.92 in 7.0 mi WNW 4.6 mph - N/A   Light Drizzle
8:35 AM 38.7 °F 35.2 °F 35.6 °F 89% 29.92 in 5.0 mi West 4.6 mph - N/A   Light Drizzle
8:55 AM 38.7 °F 35.2 °F 35.6 °F 89% 29.93 in 10.0 mi WNW 4.6 mph - N/A   Light Drizzle
9:15 AM 38.7 °F 35.2 °F 35.8 °F 89% 29.93 in 10.0 mi West 4.6 mph - N/A   Light Drizzle
9:35 AM 39.6 °F 36.3 °F 36.7 °F 89% 29.94 in 7.0 mi WNW 4.6 mph - N/A Rain Light Rain
9:55 AM 40.5 °F 34.6 °F 35.6 °F 83% 29.94 in 10.0 mi NNW 9.2 mph - N/A   Overcast
10:15 AM 40.3 °F 34.4 °F 35.6 °F 83% 29.95 in 10.0 mi NNW 9.2 mph - N/A   Overcast
10:35 AM 40.5 °F 34.6 °F 35.8 °F 83% 29.96 in 10.0 mi NW 9.2 mph - N/A   Light Drizzle
10:55 AM 41.7 °F 36.7 °F 36.0 °F 80% 29.96 in 10.0 mi NW 8.1 mph - N/A   Overcast
11:15 AM 42.3 °F 36.3 °F 35.8 °F 78% 29.96 in 10.0 mi NNW 10.4 mph - N/A   Overcast
11:35 AM 42.3 °F 35.5 °F 36.0 °F 78% 29.97 in 10.0 mi NW 12.7 mph - N/A   Overcast
11:55 AM 42.8 °F 36.6 °F 36.3 °F 78% 29.97 in 10.0 mi NW 11.5 mph 19.6 mph N/A   Overcast
12:15 PM 42.6 °F 36.3 °F 35.4 °F 76% 29.97 in 7.0 mi NW 11.5 mph - N/A   Overcast
12:35 PM 42.6 °F 37.2 °F 36.1 °F 78% 29.97 in 7.0 mi NW 9.2 mph - N/A   Light Drizzle
12:55 PM 44.1 °F 38.1 °F 36.0 °F 73% 29.98 in 10.0 mi NNW 11.5 mph - N/A   Overcast
1:35 PM 45.0 °F 38.9 °F 35.1 °F 68% 29.98 in 10.0 mi NNW 12.7 mph 19.6 mph N/A   Scattered Clouds
1:55 PM 46.6 °F - 36.0 °F 67% 29.98 in 10.0 mi North 10.4 mph 18.4 mph N/A   Clear
2:15 PM 45.9 °F 39.7 °F 37.9 °F 74% 29.99 in 7.0 mi NW 13.8 mph 17.3 mph N/A   Scattered Clouds
2:35 PM 45.1 °F 38.8 °F 36.1 °F 71% 29.99 in 7.0 mi NNW 13.8 mph 21.9 mph N/A Rain Light Rain
2:55 PM 46.4 °F 40.4 °F 35.6 °F 66% 30.00 in 10.0 mi NNW 13.8 mph 20.7 mph N/A   Mostly Cloudy
3:15 PM 45.5 °F 38.6 °F 35.2 °F 67% 30.01 in 10.0 mi NW 16.1 mph 21.9 mph N/A   Mostly Cloudy
3:35 PM 45.5 °F 39.9 °F 34.3 °F 65% 30.01 in 10.0 mi NW 11.5 mph 19.6 mph N/A   Overcast
3:55 PM 45.0 °F 38.2 °F 34.7 °F 67% 30.01 in 10.0 mi NNW 15.0 mph - N/A   Overcast
4:15 PM 43.9 °F 37.2 °F 36.0 °F 74% 30.02 in 7.0 mi NNW 13.8 mph 17.3 mph N/A Rain Light Rain
4:35 PM 42.8 °F 36.2 °F 34.0 °F 71% 30.03 in 10.0 mi NNW 12.7 mph 20.7 mph N/A   Overcast
4:55 PM 43.9 °F 37.2 °F 34.2 °F 69% 30.03 in 10.0 mi NNW 13.8 mph 24.2 mph N/A   Mostly Cloudy
5:15 PM 44.1 °F 37.1 °F 34.2 °F 68% 30.04 in 10.0 mi NNW 15.0 mph 23.0 mph N/A   Mostly Cloudy
5:35 PM 44.6 °F 37.8 °F 33.8 °F 66% 30.04 in 10.0 mi NNW 15.0 mph 20.7 mph N/A   Mostly Cloudy
6:15 PM 43.0 °F 37.2 °F 33.1 °F 68% 30.05 in 10.0 mi NNW 10.4 mph 18.4 mph N/A   Mostly Cloudy
6:35 PM 43.0 °F 36.8 °F 33.1 °F 68% 30.05 in 10.0 mi North 11.5 mph 16.1 mph N/A   Scattered Clouds
6:55 PM 43.0 °F 36.8 °F 32.9 °F 68% 30.05 in 10.0 mi NNW 11.5 mph 18.4 mph N/A   Scattered Clouds
7:15 PM 42.8 °F 36.2 °F 32.9 °F 68% 30.06 in 10.0 mi NNW 12.7 mph 18.4 mph N/A   Overcast
7:35 PM 42.3 °F 35.9 °F 32.5 °F 68% 30.06 in 10.0 mi NNW 11.5 mph 16.1 mph N/A   Mostly Cloudy
7:55 PM 41.2 °F 36.0 °F 32.4 °F 71% 30.07 in 10.0 mi NNW 8.1 mph - N/A   Scattered Clouds
8:15 PM 42.1 °F 36.6 °F 32.9 °F 70% 30.08 in 10.0 mi North 9.2 mph 16.1 mph N/A   Mostly Cloudy
8:35 PM 40.5 °F 34.1 °F 32.2 °F 72% 30.08 in 10.0 mi NNW 10.4 mph - N/A   Scattered Clouds
8:55 PM 40.1 °F 35.3 °F 32.2 °F 73% 30.09 in 10.0 mi NNW 6.9 mph - N/A   Clear
9:15 PM 39.6 °F 34.0 °F 32.5 °F 76% 30.09 in 10.0 mi NW 8.1 mph - N/A   Clear
9:35 PM 39.6 °F 34.7 °F 32.5 °F 76% 30.10 in 10.0 mi NW 6.9 mph - N/A   Clear
9:55 PM 39.0 °F 35.7 °F 32.2 °F 76% 30.09 in 10.0 mi NW 4.6 mph - N/A   Clear
10:15 PM 38.7 °F - 32.4 °F 78% 30.10 in 10.0 mi Calm Calm - N/A   Clear
10:35 PM 38.8 °F 36.5 °F 32.2 °F 77% 30.10 in 10.0 mi NNW 3.5 mph - N/A   Scattered Clouds
10:55 PM 39.4 °F 35.2 °F 32.9 °F 78% 30.10 in 10.0 mi WNW 5.8 mph - N/A   Overcast
11:15 PM 39.7 °F 36.5 °F 33.1 °F 77% 30.09 in 10.0 mi NW 4.6 mph - N/A   Overcast
11:35 PM 40.5 °F 35.8 °F 34.0 °F 78% 30.09 in 10.0 mi WNW 6.9 mph - N/A   Overcast
11:55 PM 39.6 °F - 33.3 °F 78% 30.08 in 10.0 mi Calm Calm - N/A   Scattered Clouds